RH
83 84 84 85 84 81 87 88 99 64 70 96 91 94 52 38 29 36 43 43 43 44 33 31 28 24 20 19 19 28 22 26 31 26 25 24 20 23 27 38 33 35 39 29
83 84 85 85 85 85 90 95 96 80 71 88 95 54 55 38 33 35 43 45 43 45 44 36 29 27 24 23 23 25 27 30 35 30 28 27 25 24 23 28 36 34 59 30
84 84 85 86 87 86 86 98 99 97 92 46 57 64 60 48 36 30 39 39 43 46 47 42 40 31 35 31 22 55 36 25 28 33 23 19 29 25 22 26 40 32 34 24
85 84 84 86 89 86 92 98 88 79 94 79 50 49 48 51 44 35 34 43 44 46 50 43 45 35 44 38 56 30 30 29 27 20 17 16 18 17 22 25 26 31 27 23
77 81 84 86 91 86 95 99 72 63 51 61 55 57 53 44 37 33 43 42 42 42 44 39 55 43 42 37 45 33 31 30 28 31 22 21 22 18 17 21 19 22 23 22
79 81 83 84 90 88 97 90 52 48 57 59 64 60 48 45 39 35 28 38 40 47 41 39 45 44 44 39 39 45 41 36 38 36 30 30 54 34 23 22 25 26 28 22
80 80 80 84 90 86 91 64 55 77 61 64 61 51 44 45 42 44 34 34 48 37 42 40 50 39 45 43 43 37 46 44 44 48 69 83 24 24 21 23 22 20 21 19
81 79 81 81 89 85 87 74 72 70 88 50 51 54 47 39 42 46 37 42 38 43 40 44 43 60 54 51 43 48 42 45 57 79 50 30 30 30 29 31 24 18 20 18
86 82 80 81 90 86 80 81 71 73 73 54 37 54 53 51 54 50 44 39 52 51 58 58 61 44 35 43 56 50 47 50 57 62 58 81 29 21 22 23 36 17 18 22
88 82 80 89 88 84 75 85 79 76 69 44 43 59 66 48 49 50 48 57 65 52 72 93 69 54 35 53 64 86 69 67 76 62 71 41 27 25 24 39 36 21 20 23
84 81 85 87 88 84 75 89 78 79 76 78 62 50 54 48 55 58 46 61 68 73 78 74 68 80 51 46 39 59 60 68 83 61 88 76 30 28 31 27 34 26 30 28
82 86 88 88 88 78 77 98 78 72 73 97 81 74 68 71 36 40 52 40 47 49 60 69 58 96 91 47 60 41 56 47 50 46 45 33 33 26 25 28 25 32 30 30
85 90 87 87 88 78 81 97 82 77 79 65 86 87 61 67 67 46 52 42 38 49 41 60 68 89 65 94 59 45 45 48 58 54 30 33 35 27 30 28 28 27 28 32
90 89 88 90 87 86 80 81 68 58 73 86 65 76 69 60 65 58 52 40 54 51 58 68 88 90 49 64 44 56 38 50 46 45 36 44 39 35 29 34 39 38 31 36
90 89 92 93 91 82 78 73 62 52 52 91 84 65 75 78 78 64 54 58 54 69 79 90 76 54 66 73 69 61 42 45 58 53 34 44 29 29 34 39 42 39 38 42
92 91 90 88 82 74 78 97 79 63 58 80 99 69 60 67 88 73 57 59 57 62 64 77 57 58 62 92 66 37 37 38 38 38 48 51 54 48 40 41 42 42 42 41
92 90 86 80 75 62 64 65 66 71 63 79 98 89 72 65 74 81 78 67 71 63 69 72 65 72 67 95 79 41 38 38 45 56 58 52 54 51 58 53 52 57 45 46
89 83 81 78 74 70 74 88 83 77 68 75 99 93 90 64 78 98 94 97 88 76 72 74 69 69 82 80 46 41 47 54 60 58 59 59 58 58 61 62 57 59 58 58
83 84 81 74 73 79 93 91 82 77 73 98 100 100 97 81 90 95 99 93 100 84 94 79 68 76 86 57 52 51 57 61 57 64 60 60 62 61 67 65 64 64 70 68
82 79 93 97 81 90 90 93 94 87 94 95 100 94 97 93 100 98 95 100 100 100 96 84 98 75 71 73 70 67 65 62 63 71 74 72 71 68 70 70 68 72 72 73
74 89 94 76 87 89 92 98 100 99 100 98 84 78 83 94 99 100 94 99 100 100 99 96 100 97 96 88 79 71 75 68 62 59 60 61 63 70 75 82 81 81 85 91
81 88 73 75 70 80 95 100 99 100 96 98 98 96 87 98 91 97 99 100 100 100 99 100 98 99 99 96 94 87 77 72 72 67 67 70 69 72 79 86 91 93 94 97
95 92 96 94 98 100 100 98 99 99 100 99 100 100 98 97 93 100 100 100 100 99 100 96 96 96 98 99 98 97 94 92 89 86 85 88 92 90 93 96 96 96 96 97
99 99 99 100 97 95 95 95 100 100 100 100 100 100 100 100 100 100 100 100 100 100 96 96 92 97 99 99 100 100 99 100 98 98 97 97 96 97 97 97 97 96 95 96
93 83 95 92 97 94 96 97 100 100 100 100 99 100 99 100 100 98 99 100 93 86 90 93 94 97 100 99 98 97 97 98 97 97 96 98 98 95 95 95 94 93 96 95
75 82 91 88 90 92 92 94 97 99 99 100 99 97 100 96 88 84 92 79 87 90 90 90 96 99 97 98 98 98 98 97 96 95 94 94 94 94 91 91 90 96 94 94
93 95 95 97 96 96 97 98 96 96 100 98 76 87 95 73 77 82 80 90 90 91 90 91 97 97 97 97 98 99 97 93 93 92 91 89 77 70 68 77 78 80 85 90
Wind_Speed
33 32 32 33 32 28 22 9 10 12 17 12 6 13 30 17 20 16 8 5 6 5 9 15 15 22 16 17 21 20 17 9 9 13 4 5 7 10 12 7 7 4 7 10
34 33 33 34 36 34 15 9 6 13 14 15 13 29 26 28 19 24 12 11 7 4 4 7 16 12 11 14 19 18 14 10 11 11 7 5 9 11 12 7 3 11 7 4
35 34 34 36 38 37 15 7 8 7 13 19 27 29 23 30 23 23 13 11 7 8 6 4 4 9 4 12 18 3 17 13 16 13 13 12 11 13 15 15 8 10 11 11
34 33 35 37 40 40 16 8 9 11 16 22 30 29 29 28 31 25 18 15 17 13 5 3 3 2 5 6 4 7 12 16 17 18 16 15 16 14 15 16 17 13 12 16
37 38 37 40 41 42 11 7 9 15 14 28 32 28 26 32 28 24 24 20 21 12 13 4 6 7 7 1 4 7 6 10 11 13 13 14 16 17 18 19 17 14 16 18
39 39 38 41 44 39 7 9 12 13 14 27 20 23 29 32 27 27 25 20 11 21 20 8 3 5 8 8 4 9 6 8 8 13 9 8 6 16 16 16 14 15 16 16
39 39 38 42 44 39 8 12 9 10 13 17 24 32 30 29 28 26 16 15 17 6 6 6 7 11 9 11 9 9 5 9 5 5 4 8 7 2 17 19 15 15 16 16
39 38 38 38 43 45 10 9 9 8 11 18 24 28 28 23 22 24 22 10 12 4 3 5 6 6 7 8 7 12 14 8 4 5 9 9 5 6 9 12 16 14 18 18
38 36 36 37 44 44 9 11 7 5 12 16 22 23 18 19 20 19 20 11 7 7 5 5 8 8 8 7 5 2 8 9 8 4 7 8 9 11 10 4 16 9 12 14
31 34 34 38 44 43 12 6 8 7 8 8 14 17 17 25 16 15 18 10 10 10 6 5 6 6 6 13 6 5 5 4 12 11 7 6 3 10 11 10 14 5 7 9
31 32 35 43 41 33 14 6 6 8 5 2 0 13 16 20 16 17 17 11 6 7 9 7 6 4 6 8 12 7 9 9 6 9 7 12 12 11 12 12 3 7 8 9
27 31 39 40 40 27 15 5 5 5 3 4 5 6 8 7 24 15 17 12 17 8 8 6 5 3 1 8 10 6 8 7 3 9 7 4 20 15 17 6 7 7 10 10
28 34 41 39 38 25 13 6 6 5 3 2 2 4 4 8 13 13 12 10 10 12 6 5 4 5 6 6 10 12 7 5 6 2 10 12 12 16 6 10 9 6 8 14
34 35 35 31 34 22 15 7 5 6 4 3 1 6 11 6 11 14 12 10 6 6 7 5 4 4 6 7 10 10 9 9 9 11 13 6 11 15 15 10 6 7 9 15
31 29 26 28 27 21 12 7 4 5 2 1 2 4 5 11 16 16 14 8 12 4 5 3 5 3 3 2 2 10 9 9 9 8 13 7 15 7 14 14 13 10 13 16
32 33 33 30 28 21 9 3 3 2 4 3 3 2 13 16 18 16 20 13 9 3 5 4 4 2 5 4 8 14 13 10 12 8 2 4 3 4 4 12 11 10 12 15
32 32 30 25 22 10 5 3 5 11 6 3 4 4 5 12 18 11 8 14 8 8 7 5 5 4 4 3 9 8 10 13 9 3 4 3 5 2 5 7 11 6 10 12
29 28 24 19 11 7 3 4 15 11 3 2 3 3 4 12 5 3 2 5 6 9 7 2 7 4 3 6 10 13 6 4 5 5 1 3 7 8 9 8 14 13 12 12
24 25 22 8 1 2 2 9 15 1 1 4 2 4 2 1 3 2 2 2 4 1 6 6 6 6 8 3 7 6 7 7 6 5 4 4 5 8 13 13 13 12 15 14
29 11 3 3 4 14 17 5 4 2 2 1 3 1 2 2 1 3 3 1 2 3 5 6 4 6 6 8 8 8 4 5 8 7 6 8 9 9 12 11 11 14 12 16
3 3 2 4 16 6 3 3 4 5 5 5 4 10 3 2 3 3 2 3 2 4 3 7 3 2 7 12 9 6 4 0 4 7 1 5 11 12 13 12 12 13 14 16
3 3 5 4 5 2 2 3 4 4 3 4 4 3 5 3 3 2 2 2 2 0 2 3 4 4 9 9 8 8 8 4 4 4 5 7 9 11 13 14 13 14 15 15
2 3 3 3 1 3 4 7 4 3 2 2 2 3 4 2 2 3 2 3 2 1 4 4 5 10 9 9 6 8 9 9 9 10 11 13 14 13 14 15 14 16 15 14
1 2 4 3 1 3 2 4 3 2 2 3 1 2 1 0 2 0 3 2 1 4 4 5 7 14 10 8 6 6 8 9 11 11 11 13 15 14 15 14 14 15 15 13
5 5 5 5 4 5 5 4 2 2 3 1 1 2 1 4 3 4 2 4 6 7 5 6 10 14 7 7 7 8 9 9 11 10 12 14 14 15 16 15 14 15 13 14
5 9 6 8 4 8 7 8 6 4 3 2 2 3 4 7 4 6 8 5 7 5 7 10 10 8 9 9 10 10 10 11 12 13 14 15 15 15 16 16 15 13 13 13
6 5 10 8 5 6 8 8 6 4 2 2 4 8 8 3 6 6 7 5 5 7 8 8 12 11 11 12 12 12 13 15 15 15 15 15 15 14 16 17 14 14 14 13
Wind_Direction
219 216 209 199 191 182 174 183 215 161 166 179 204 235 223 243 219 207 223 226 209 217 207 204 204 211 203 194 188 198 205 227 216 209 102 309 261 222 210 236 203 241 273 257
215 210 206 195 185 178 172 179 194 167 174 194 188 231 233 237 217 214 203 197 210 170 216 213 217 206 184 179 187 198 170 211 215 202 194 192 221 205 219 236 271 238 232 256
213 203 203 196 183 177 181 170 168 162 195 207 196 203 213 222 239 232 207 208 183 193 207 216 201 220 139 189 203 145 177 207 218 226 223 212 208 220 219 223 230 251 230 261
213 205 198 195 183 176 179 183 188 181 185 199 208 194 194 215 214 228 213 214 207 192 197 177 217 215 134 145 167 192 199 226 227 241 250 244 238 235 215 220 231 245 252 250
208 204 195 192 183 174 184 164 193 177 181 199 213 203 198 201 209 207 215 221 200 183 209 187 139 106 40 98 150 190 194 224 212 230 239 232 237 239 245 228 246 255 262 265
202 199 194 192 182 171 170 187 226 197 202 197 198 213 201 202 201 215 221 214 215 218 226 226 300 359 298 279 273 192 200 215 203 237 222 232 256 238 232 227 221 226 252 267
196 194 192 188 184 175 178 180 190 200 200 190 202 207 216 200 202 206 205 231 219 184 111 95 100 271 283 262 235 236 194 208 199 218 175 228 237 230 224 231 235 237 257 266
190 190 189 184 186 173 187 169 191 191 207 199 197 203 210 210 203 206 210 224 238 97 187 221 217 183 262 242 233 210 223 192 181 178 213 260 173 184 185 201 243 237 253 267
183 181 179 181 174 172 166 178 191 212 202 208 202 188 195 202 193 189 193 190 128 133 207 198 214 204 171 225 187 200 187 238 230 172 222 225 233 189 194 212 268 263 253 259
175 179 175 176 167 174 166 153 206 213 205 204 207 201 190 202 197 188 181 164 172 178 206 205 198 217 198 189 233 180 162 181 207 212 239 245 196 153 159 207 260 171 222 239
166 168 176 166 166 167 156 158 207 198 175 2 113 233 191 187 199 189 175 157 165 184 210 210 182 213 200 213 192 178 186 172 180 211 217 242 148 142 206 227 183 201 202 205
160 168 161 158 161 146 127 111 100 88 96 71 330 327 291 291 192 192 178 187 174 166 189 206 209 188 169 199 214 204 236 220 227 211 211 168 183 211 216 217 217 194 201 177
162 158 154 160 166 148 101 110 126 85 92 191 98 346 322 294 263 257 185 194 171 190 201 163 220 213 173 188 219 220 226 176 211 225 242 232 209 232 236 210 209 186 200 175
146 145 148 159 161 146 129 108 130 120 109 234 184 208 246 264 269 246 242 216 173 171 191 209 179 202 217 226 236 219 227 158 213 244 260 282 253 235 222 203 204 188 188 176
125 136 137 133 126 131 107 102 127 140 218 92 297 278 213 315 290 229 209 217 191 164 160 167 217 203 195 208 274 227 189 195 207 231 247 231 262 253 199 206 208 194 175 170
127 125 128 121 126 120 100 82 281 162 57 77 277 305 186 202 236 238 209 211 222 226 210 207 229 142 208 235 242 241 214 234 231 246 147 238 347 347 254 203 179 182 186 177
118 117 118 122 121 126 143 135 139 161 174 170 254 248 203 195 237 192 189 202 207 216 227 225 234 190 214 231 249 282 235 227 214 201 149 222 201 269 165 159 122 145 156 155
115 120 128 123 84 100 141 89 139 151 166 162 257 214 227 195 161 135 170 164 189 201 213 190 213 165 230 251 257 248 220 207 221 190 274 356 107 122 103 124 126 144 144 143
125 122 111 97 107 125 17 145 149 163 235 156 221 306 16 48 97 94 126 150 179 170 190 211 194 190 220 261 271 253 217 209 199 150 141 144 169 159 141 142 141 153 141 138
120 121 110 155 159 108 113 150 149 343 17 241 277 246 256 271 170 150 119 130 160 182 187 148 214 229 66 12 332 313 268 217 166 159 178 169 173 167 140 142 149 143 147 133
101 87 81 84 132 175 194 125 160 152 206 213 207 206 235 260 184 134 258 166 130 201 177 181 161 81 347 334 327 351 311 168 275 292 126 168 162 152 137 139 142 135 131 127
93 145 136 140 204 194 161 147 137 211 241 190 171 154 167 238 199 161 147 161 162 201 300 97 74 26 339 340 354 359 359 339 290 331 98 110 128 135 134 129 124 114 110 111
14 28 82 213 164 200 206 183 180 197 253 160 151 145 176 183 40 74 138 159 75 234 50 72 53 344 343 341 349 35 40 55 60 63 77 91 92 95 102 100 101 106 102 103
47 52 85 330 62 28 11 3 13 11 295 328 50 93 97 91 77 270 97 77 38 79 62 54 4 343 341 356 6 50 51 59 71 72 78 83 83 86 87 94 100 100 98 98
43 358 51 52 8 12 343 333 237 48 301 289 133 105 91 37 69 17 82 66 64 36 30 353 331 322 351 27 49 58 57 63 67 71 78 81 85 83 81 79 86 90 92 93
53 41 355 350 8 2 3 353 350 337 323 16 343 108 87 50 35 48 22 51 43 17 342 328 324 10 28 45 59 65 68 74 77 74 77 74 73 80 84 80 75 76 84 93
37 41 21 10 7 340 331 323 311 295 304 58 47 51 40 20 53 52 21 41 1 334 350 352 355 34 50 57 60 60 65 69 71 74 73 79 86 87 84 82 80 84 84 85